SCP
0 0 0 0 0 0 0 0 0 1 1 1 1 1 1 1 1 1 1 2 1 1 1 3 4 3 2 1 1 1 1 1 1 2 2 2 1 1 1 1 2 2 3 3
0 0 0 0 0 0 0 0 0 0 1 1 0 1 1 1 1 1 1 2 2 1 1 3 4 4 3 2 1 1 1 1 1 1 2 2 2 1 1 1 1 2 3 3
0 0 0 0 0 0 0 0 0 1 1 1 0 0 1 1 1 1 1 2 2 2 1 2 3 4 3 2 2 1 1 1 1 1 1 2 2 2 1 1 1 2 3 3
0 0 0 0 0 0 0 0 0 1 1 1 0 0 1 1 1 1 1 1 2 2 2 1 2 3 3 3 2 2 2 1 1 1 1 1 1 2 1 1 2 2 3 3
0 0 0 0 0 0 0 0 0 0 0 0 0 0 1 1 1 1 1 1 2 2 2 2 2 2 2 3 2 2 2 2 1 1 1 1 1 1 1 1 2 2 2 2
0 0 1 1 1 1 1 1 1 1 0 0 0 0 1 1 1 1 1 1 1 2 2 2 2 2 2 2 2 2 3 3 2 2 1 1 1 1 1 1 1 2 2 2
0 0 0 1 1 1 1 1 1 1 0 0 0 0 0 0 0 1 1 1 1 1 2 2 2 2 2 2 3 3 3 3 3 3 2 1 1 1 1 1 1 1 2 2
0 0 0 0 1 1 1 1 1 1 0 0 0 0 0 0 0 1 1 1 1 1 2 2 3 2 2 2 3 3 3 3 3 3 3 2 1 1 1 1 1 1 1 2
0 0 0 0 1 1 1 1 1 1 1 0 0 1 1 1 1 1 1 1 1 1 2 3 3 2 2 2 3 3 3 3 3 3 3 3 2 2 1 1 1 1 1 1
0 0 0 0 0 1 1 1 1 1 1 0 0 1 1 1 1 1 1 1 1 2 2 3 3 3 2 2 3 3 3 3 3 3 3 3 3 2 1 1 1 1 1 1
0 0 0 0 0 1 1 1 1 1 0 0 0 0 0 0 0 0 1 1 1 2 3 3 3 3 2 2 3 3 3 3 3 3 3 3 3 2 2 1 1 1 1 1
0 0 0 0 0 0 1 1 1 0 0 0 0 0 0 0 0 0 1 1 1 2 3 3 3 3 3 2 2 3 3 3 3 3 3 3 3 2 2 2 1 1 1 1
0 0 0 0 0 0 1 0 0 0 0 0 0 0 0 0 0 0 1 1 1 2 3 3 3 3 2 2 2 2 3 3 3 4 4 3 3 2 2 2 1 1 1 1
0 0 0 0 0 0 0 0 0 0 0 0 0 0 0 0 0 0 0 1 1 2 3 3 3 3 2 2 2 2 2 3 3 4 4 4 3 3 2 2 2 1 1 1
0 0 0 0 0 0 0 0 0 0 0 0 0 0 0 0 0 0 0 0 1 1 3 3 3 2 2 2 2 2 2 3 3 4 4 4 3 3 2 2 2 2 1 1
0 0 0 0 0 0 0 0 0 0 0 0 0 0 0 0 0 0 0 0 1 1 2 3 3 3 2 2 2 2 2 3 3 4 4 4 3 2 2 1 1 2 1 1
0 0 0 0 0 0 0 0 0 0 0 0 0 0 0 0 0 0 0 1 1 2 2 2 2 2 2 2 2 2 3 3 4 4 4 3 3 2 1 1 1 1 1 1
0 0 0 0 0 0 0 0 0 0 0 0 0 0 0 0 0 0 0 1 1 1 2 2 1 1 2 2 3 3 4 4 4 4 3 3 2 1 1 1 1 1 1 1
0 0 0 0 0 0 0 0 0 0 0 0 0 0 0 0 0 0 0 1 1 1 1 1 0 0 1 2 4 4 4 4 4 4 3 2 1 1 1 1 1 1 1 1
0 0 0 0 0 0 0 0 0 0 0 0 0 0 0 0 0 0 0 0 1 1 1 0 0 0 1 3 4 4 4 4 4 3 3 2 1 1 1 1 1 1 1 1
0 0 0 0 0 0 0 0 0 0 0 0 0 0 0 0 0 0 0 0 1 0 0 0 0 0 1 3 4 4 4 4 3 3 3 2 2 2 2 1 1 1 1 1
0 0 0 0 0 0 0 0 0 0 0 0 0 0 0 0 0 0 0 0 0 0 0 0 0 0 1 2 3 3 4 4 3 3 3 2 2 2 2 1 1 1 1 1
0 0 0 0 0 0 0 0 0 0 0 0 0 0 0 0 0 0 0 0 0 0 0 0 0 0 1 1 1 2 3 4 4 3 3 3 2 2 2 2 1 1 1 1
0 0 0 0 0 0 0 0 0 0 0 0 0 0 0 0 0 0 0 0 0 0 0 0 0 0 0 0 0 1 2 4 4 3 3 3 2 2 2 2 2 1 1 1
0 0 0 0 0 0 0 0 0 0 0 0 0 0 0 0 0 0 0 0 0 0 0 0 0 0 0 0 0 1 2 4 4 4 3 3 2 2 2 2 2 2 1 1
0 0 0 0 0 0 0 0 0 0 0 0 0 0 0 0 0 0 0 0 0 0 0 0 0 0 0 0 0 1 2 4 4 4 3 3 2 2 2 2 2 2 1 1
Wind_Speed
7 7 5 3 4 6 5 4 2 1 3 2 3 3 4 6 5 5 6 6 6 6 6 6 4 4 4 4 4 4 3 3 3 2 2 2 2 2 2 2 3 3 3 3
7 6 3 3 3 6 7 5 2 2 2 2 3 3 4 5 5 4 4 5 7 7 6 6 4 4 4 3 3 3 3 3 3 2 2 2 2 1 1 1 2 2 2 2
6 1 2 5 5 6 6 3 2 3 2 5 5 4 5 7 7 5 3 3 5 7 7 6 5 4 3 3 3 2 3 3 3 3 2 2 2 1 1 1 1 2 2 2
5 3 3 5 4 5 5 2 3 5 5 4 5 3 5 8 8 7 6 4 4 6 6 5 5 4 3 3 2 2 2 2 3 3 3 2 2 1 1 1 1 1 1 1
4 2 4 5 3 4 5 4 6 8 8 7 8 5 4 8 8 8 7 6 5 6 6 5 5 4 4 3 2 2 2 2 2 3 3 2 1 1 1 1 1 1 1 1
5 4 3 4 4 5 6 8 9 9 7 8 8 5 2 4 6 8 8 7 5 6 6 5 5 4 3 3 3 2 2 2 2 2 3 2 2 1 1 1 1 0 0 0
8 7 4 3 5 4 6 6 3 4 5 4 2 2 2 5 5 6 7 7 6 6 6 5 5 4 3 3 3 2 2 2 2 2 2 2 2 2 1 1 1 1 0 0
7 5 5 3 4 4 6 7 4 4 3 2 2 2 4 6 7 6 6 6 5 5 6 6 5 4 4 3 3 3 3 2 2 2 2 2 2 1 1 1 1 1 1 1
5 2 4 4 3 6 6 5 6 6 8 6 2 3 5 6 6 6 5 5 5 5 5 5 5 4 4 4 3 3 3 3 3 3 2 2 2 1 1 1 1 1 1 1
7 7 4 4 5 8 7 6 4 4 5 5 2 1 3 5 4 4 4 4 4 4 4 5 5 4 3 3 3 3 3 4 4 3 3 2 2 2 1 1 1 1 1 1
7 7 6 5 6 5 5 5 4 3 4 4 3 1 2 4 3 3 3 4 4 3 3 3 4 4 3 3 3 3 3 3 3 3 3 2 2 2 2 1 1 1 0 0
4 6 8 6 3 3 4 5 5 4 5 4 3 1 3 3 3 3 3 4 3 3 3 3 3 3 3 2 2 2 2 2 2 2 2 2 2 2 2 2 1 1 1 1
6 6 7 4 3 4 5 5 5 6 5 5 5 2 4 2 2 3 3 4 3 3 3 3 3 3 2 2 1 1 2 2 1 2 2 2 2 2 2 2 1 1 1 1
5 7 8 8 5 4 6 6 6 6 5 6 6 4 2 1 1 2 2 3 3 3 3 3 3 2 2 2 1 1 1 1 1 1 2 1 1 1 1 1 1 0 1 1
5 8 9 10 9 8 9 10 9 9 9 8 7 6 4 1 1 2 1 2 2 3 3 2 2 2 2 1 1 1 1 1 1 1 1 1 1 1 1 1 1 0 1 1
6 8 9 10 10 9 11 11 10 10 9 9 8 7 2 2 2 1 1 2 1 1 2 2 2 2 2 2 1 1 1 0 1 2 1 1 1 1 1 1 0 0 0 1
5 7 8 8 9 9 10 8 8 7 7 7 7 3 1 1 1 2 2 2 1 0 0 1 2 1 2 2 2 2 1 1 1 2 2 2 2 2 1 1 1 0 0 0
8 7 5 7 9 10 3 1 1 3 5 3 2 1 1 1 1 2 2 1 1 1 1 0 0 0 0 1 1 2 2 1 1 1 1 2 2 2 2 1 0 0 0 0
8 6 5 5 8 8 4 2 1 3 5 3 3 1 1 2 1 1 2 2 2 1 1 1 0 1 1 1 1 1 2 1 1 1 1 1 1 2 2 1 1 1 1 1
8 7 6 6 7 7 1 2 2 2 3 1 2 2 2 1 2 1 3 2 2 2 2 1 1 1 1 1 1 1 2 2 1 1 1 1 1 1 1 1 2 1 1 1
6 7 8 8 8 6 1 1 1 2 1 3 4 3 2 2 2 2 3 3 2 2 2 2 2 1 1 1 1 1 1 1 1 1 1 1 1 1 1 1 1 1 1 1
6 5 6 6 8 5 1 0 1 2 4 4 4 4 3 3 2 2 2 2 2 1 1 2 1 1 1 1 1 0 0 1 1 1 1 1 1 1 1 1 1 1 1 1
5 4 2 3 2 1 2 1 2 3 3 3 4 4 3 2 1 1 1 1 1 1 1 1 1 1 0 0 1 0 0 1 1 1 1 1 1 1 1 1 1 1 1 1
5 3 4 4 3 2 1 1 1 2 3 3 3 3 2 1 1 1 0 0 0 0 1 1 1 0 0 0 0 0 0 1 1 1 1 1 1 1 1 1 1 1 1 1
5 4 5 6 6 4 2 1 1 1 2 3 3 3 2 2 1 1 1 1 1 1 0 1 1 1 0 1 1 1 1 0 1 1 1 1 1 0 0 0 1 1 1 2
7 7 7 6 5 5 3 2 1 2 2 2 2 3 3 2 1 1 1 1 1 1 0 1 1 1 0 1 1 1 1 1 1 1 1 1 1 1 0 1 1 1 1 2
Wind_Direction
219 232 238 241 252 281 296 286 292 113 134 204 218 213 175 170 170 174 168 161 152 141 130 116 114 105 99 86 86 87 77 92 91 79 75 77 71 68 65 55 64 68 60 67
231 227 251 279 269 274 280 277 272 143 137 248 220 223 185 165 164 164 165 159 151 142 131 125 122 115 109 100 90 97 94 87 100 102 101 110 114 107 90 58 57 60 61 65
249 235 263 259 256 264 267 286 323 313 276 244 232 225 198 159 149 146 151 148 141 142 139 140 138 124 127 122 115 105 102 100 101 109 97 84 80 88 88 92 68 52 58 70
244 244 257 261 264 284 289 348 312 283 269 248 225 241 196 167 157 159 162 160 143 133 132 134 131 133 134 123 118 118 111 110 116 113 104 106 111 115 132 128 123 107 85 76
245 242 262 264 278 288 299 309 274 267 270 272 250 244 199 169 165 161 160 160 152 139 137 136 135 137 134 121 108 107 111 99 104 122 119 125 108 125 107 89 117 132 123 98
246 243 256 276 273 265 283 277 260 245 253 256 242 231 188 162 166 156 151 151 154 144 136 132 128 126 125 126 128 118 120 120 106 117 133 134 134 140 111 100 99 118 79 110
231 221 209 243 263 245 262 281 274 228 216 233 210 209 125 107 101 122 140 147 151 144 141 139 135 137 134 134 145 151 139 134 141 145 144 153 161 174 167 149 155 175 182 180
245 220 189 206 262 267 254 260 272 290 283 278 221 176 112 99 96 100 123 131 134 136 138 141 144 146 146 150 158 166 158 157 159 168 170 177 168 156 168 172 170 183 184 187
298 267 174 188 241 271 267 263 281 290 291 281 213 138 127 119 117 113 123 132 136 135 136 143 148 150 153 159 163 174 172 167 171 185 191 189 167 152 164 188 162 162 189 203
290 293 245 186 219 233 257 284 282 269 286 284 262 186 131 132 122 121 136 141 140 139 141 146 149 152 158 157 166 175 185 177 175 184 193 185 178 173 178 172 167 161 195 197
282 274 259 212 218 237 232 254 266 277 272 285 293 35 69 117 119 133 137 131 130 133 138 137 139 146 148 146 155 171 182 180 171 184 188 190 181 173 169 168 188 180 153 180
285 280 270 251 190 221 243 257 267 269 277 284 288 279 97 112 125 132 132 127 122 124 123 119 129 136 144 151 152 163 170 171 176 188 184 186 172 174 173 171 177 202 213 241
324 280 276 251 198 206 233 243 264 278 275 271 265 212 144 132 101 92 109 121 126 127 130 131 125 133 147 149 152 172 163 159 163 177 169 167 181 180 176 172 176 210 222 227
300 270 273 278 294 283 263 262 256 255 257 262 263 261 202 154 90 90 103 130 132 139 145 137 135 148 155 157 164 174 153 149 149 148 157 173 185 171 161 168 156 200 257 239
270 272 279 283 287 289 282 270 257 254 258 262 269 278 286 249 139 134 135 143 144 147 154 153 159 166 161 154 154 122 110 110 135 142 158 178 163 128 113 100 90 344 314 297
255 272 283 280 273 268 267 265 258 252 255 258 263 268 301 341 54 69 111 116 138 155 164 165 177 176 181 188 176 165 127 156 168 147 139 135 133 125 121 116 102 14 337 326
261 273 283 278 284 278 262 255 251 256 250 249 258 269 1 343 30 33 58 96 98 69 118 177 186 191 205 197 182 166 162 182 174 149 147 135 134 129 118 112 59 307 278 324
270 277 275 277 278 260 269 357 264 266 277 283 282 5 36 1 32 73 64 80 72 37 28 66 112 132 239 150 153 144 146 169 152 129 135 142 145 147 145 140 149 302 323 343
246 253 260 266 272 273 265 277 264 260 270 292 290 311 34 49 357 49 63 67 60 56 50 68 138 128 121 125 133 153 171 179 165 165 148 139 145 144 145 162 198 238 233 254
230 239 248 261 272 271 299 65 35 305 256 56 10 0 12 352 285 3 52 58 59 63 71 71 69 75 94 95 122 169 186 186 191 186 160 148 153 153 163 192 216 220 214 246
221 225 233 249 259 266 353 18 287 259 35 50 20 2 352 315 329 27 38 47 58 57 57 59 69 57 46 90 127 195 184 193 192 158 156 161 174 177 184 209 239 214 207 246
251 244 234 240 248 249 84 215 312 17 39 31 14 2 356 360 23 26 39 50 53 54 64 66 73 74 63 77 132 177 244 126 113 131 159 174 177 193 165 169 243 242 212 237
244 255 269 257 262 62 99 32 29 18 11 7 1 350 359 2 27 20 31 42 37 40 85 81 82 84 96 94 100 209 265 117 129 184 213 210 199 193 170 177 209 233 220 227
274 283 273 272 269 283 286 315 17 351 344 356 348 332 328 320 329 340 312 322 17 286 127 112 106 187 179 54 46 285 4 117 182 212 222 225 202 201 195 179 194 209 214 217
290 296 279 272 278 292 283 290 306 335 335 332 333 332 328 310 282 270 269 256 243 251 152 144 176 203 153 57 53 11 350 45 233 230 234 237 187 191 189 173 238 219 226 205
261 265 262 264 283 291 300 332 321 311 307 319 320 317 311 307 270 269 276 270 263 256 177 163 155 146 147 92 73 354 304 255 227 255 276 269 228 213 186 216 295 310 224 196